#timestamp,LO_Frequency,Hit,StdDev 
1620770415.7,286047000.2,N
1620770435.5,286046999.8,N
1620770455.3,286046999.8,N
1620770475.2,286046999.9,N
1620770495.0,286047000.9,N
1620770495.9,286047000.9,N
1620770515.7,286047001.2,N
1620770535.6,286047001.1,N
1620770555.4,286047001.2,N
1620770575.2,286046998.1,Y
1620770595.1,286046999.0,P
1620770596.0,286046999.0,N
1620770615.8,286046998.7,N
1620770635.6,286046998.6,N
1620770655.5,286046998.4,N
1620770675.3,286046999.3,N
1620770695.1,286046999.2,N
1620770715.9,286046996.6,Y
1620770735.7,286046999.2,P
1620770755.6,286046996.8,P
1620770775.4,286046997.6,N
1620770795.2,286046997.6,N
1620770815.1,286046997.8,N
1620770816.0,286046997.8,N
1620770835.8,286046997.7,N
1620770855.6,286046997.5,Y
1620770875.5,286046998.2,P
1620770895.3,286046998.3,P
1620770915.1,286046996.9,P
1620770935.9,286046997.0,Y
1620770955.7,286047000.7,P
1620770975.5,286047000.9,N
1620770995.4,286047000.5,N
1620771015.2,286047000.6,N
1620771035.0,286047000.3,N
1620771035.9,286047000.3,N
1620771055.8,286047000.8,N
1620771075.6,286047000.9,N
1620771095.4,286047000.4,N
1620771115.3,286047000.3,N
1620771135.1,286047000.6,N
1620771155.8,286047001.1,N
1620771175.7,286047000.4,N
1620771195.5,286047000.9,N
1620771215.3,286046998.6,N
1620771235.2,286046998.2,N
1620771255.0,286046998.8,N
1620771255.9,286046998.8,N
1620771275.7,286047000.7,N
1620771295.6,286047001.1,N
1620771315.4,286047000.5,N
1620771335.2,286047001.0,N
1620771355.1,286047002.7,N
1620771356.0,286047002.7,N
1620771375.8,286047000.1,N
1620771395.7,286047000.1,N
1620771415.5,286047000.2,N
1620771435.3,286047002.0,N
1620771455.2,286046999.8,N
1620771475.9,286047001.2,N
1620771495.7,286046998.5,N
1620771515.6,286047001.0,N
1620771535.4,286047000.8,N
1620771555.2,286046998.2,N
1620771575.1,286046998.7,N
1620771576.0,286046998.7,N
1620771595.8,286046998.5,N
1620771615.6,286046998.7,N
1620771635.5,286046998.3,N
1620771655.3,286046999.3,N
1620771675.1,286046998.7,N
1620771695.9,286046998.8,N
1620771715.7,286047000.8,N
1620771735.6,286046998.1,N
1620771755.4,286047000.8,N
1620771775.2,286047001.1,N
1620771795.1,286047000.6,N
1620771796.0,286047000.6,N
1620771815.8,286046999.9,N
1620771835.6,286047000.9,N
1620771855.5,286047000.9,N
1620771875.3,286047002.8,N
1620771895.1,286047000.6,N
1620771915.9,286046998.3,N
1620771935.7,286047001.2,N
1620771955.5,286046998.6,N
1620771975.4,286046998.1,N
1620771995.2,286047001.2,N
1620772015.0,286046998.4,N
1620772015.9,286046998.4,N
1620772035.8,286047001.2,N
1620772055.6,286046998.7,N
1620772075.5,286046998.7,N
1620772095.3,286046999.0,N
1620772115.1,286046998.6,N
1620772135.9,286046998.9,N
1620772155.7,286047001.1,N
1620772175.5,286047000.1,N
1620772195.4,286047000.2,N
1620772215.2,286047002.5,N
1620772235.0,286047004.2,Y
1620772235.9,286047004.2,P
1620772255.8,286047001.5,N
1620772275.6,286047002.5,N
1620772295.5,286047002.4,N
1620772315.3,286047001.5,N
1620772335.1,286047001.6,N
1620772355.9,286047002.3,N
1620772375.7,286047002.0,N
1620772395.5,286047002.2,N
1620772415.4,286047001.5,N
1620772435.2,286047001.7,N
1620772455.0,286047002.6,N
1620772455.9,286047002.6,N
1620772475.8,286047000.0,N
1620772495.6,286047000.3,N
1620772515.4,286047000.4,N
1620772535.3,286047000.1,N
1620772555.1,286047000.1,N
1620772556.0,286047000.1,N
1620772575.8,286047000.4,N
1620772595.7,286047001.0,N
1620772615.5,286047000.4,N
1620772635.3,286047000.8,N
1620772655.2,286047000.8,N
1620772675.9,286047001.2,N
1620772695.7,286047000.6,N
1620772715.6,286046998.6,N
1620772735.4,286047000.7,N
1620772755.2,286047000.6,N
1620772775.1,286047001.2,N
1620772776.0,286047001.2,N
1620772795.8,286047001.2,N
1620772815.6,286047000.8,N
1620772835.5,286047000.7,N
1620772855.3,286046998.6,N
1620772875.1,286047000.9,N
1620772895.9,286047001.1,N
1620772915.7,286047000.9,N
1620772935.5,286047000.7,N
1620772955.4,286047000.9,N
1620772975.2,286047001.2,N
1620772995.0,286046998.5,N
1620772995.9,286046998.5,N
1620773015.8,286046999.3,N
1620773035.6,286046998.3,N
1620773055.4,286046999.1,N
1620773075.3,286046997.0,Y
1620773095.1,286046996.5,P
1620773115.8,286046999.5,N
1620773135.7,286046999.3,N
1620773155.5,286046998.3,N
1620773175.3,286046998.8,N
1620773195.2,286046998.4,N
1620773215.0,286046998.1,N
1620773215.9,286046998.1,N
1620773235.7,286047000.8,N
1620773255.6,286046998.9,N
1620773275.4,286046999.1,N
1620773295.2,286046999.6,N
1620773315.1,286046999.1,N
1620773316.0,286046999.1,N
1620773335.8,286046996.5,Y
1620773355.7,286046998.8,P
1620773375.5,286046997.0,P
1620773395.3,286046997.0,P
1620773415.2,286046997.2,Y
1620773435.9,286047001.1,P
1620773455.7,286047000.4,N
1620773475.6,286046999.7,N
1620773495.4,286047000.4,N
1620773515.2,286047002.7,N
1620773535.1,286047002.5,N
1620773536.0,286047002.5,N
1620773555.8,286047001.3,N
1620773575.6,286047004.0,N
1620773595.5,286047001.7,N
1620773615.3,286047002.2,N
1620773635.1,286047002.5,N
1620773655.9,286047000.1,N
1620773675.7,286047002.8,N
1620773695.5,286047002.7,N
1620773715.4,286047000.0,N
1620773735.2,286046999.9,N
1620773755.0,286047001.0,N
1620773755.9,286047001.0,N
1620773775.8,286046998.1,N
1620773795.6,286047000.3,N
1620773815.4,286047000.4,N
1620773835.3,286047000.4,N
1620773855.1,286047000.9,N
1620773856.0,286047000.9,N
1620773875.8,286047000.0,N
1620773895.7,286047001.1,N
1620773915.5,286047001.2,N
1620773935.3,286047000.8,N
1620773955.2,286047001.1,N
1620773975.9,286046998.1,N
1620773995.7,286047001.2,N
